�N����,����,�~����,�C��,���x,�C��,����,���ϕ���,�ő�u�ԕ���,�ő厞����,���˗�,�I�_���x,�n�����x,�ő啗���N��,DTYPE
"17/06/06","00:10",0.0,13.4,86.4,1012.8,299.2,1.2,2.4,329.8,0.00,11.2,18.8,"00:07:52",1
"17/06/06","00:20",0.0,13.9,86.3,1012.8,326.1,2.1,3.2,330.3,0.00,11.7,18.8,"00:10:02",1
"17/06/06","00:30",0.0,14.3,84.5,1012.8,320.3,2.1,4.2,336.2,0.00,11.8,18.8,"00:20:24",1
"17/06/06","00:40",0.0,14.2,83.8,1012.8,294.6,1.7,3.2,315.3,0.00,11.5,18.8,"00:38:32",1
"17/06/06","00:50",0.0,14.0,83.9,1012.8,291.9,1.5,2.6,313.1,0.00,11.4,18.6,"00:48:56",1
"17/06/06","01:00",0.0,13.9,84.5,1013.0,311.5,1.7,3.1,330.7,0.00,11.4,18.7,"00:58:48",1
"17/06/06","01:10",0.0,13.9,84.6,1012.6,304.8,1.7,3.2,324.8,0.00,11.4,18.6,"01:08:56",1
"17/06/06","01:20",0.0,13.8,84.9,1013.0,309.3,1.8,2.7,311.5,0.00,11.3,18.5,"01:16:24",1
"17/06/06","01:30",0.0,13.8,85.1,1012.8,326.6,2.0,2.9,329.9,0.00,11.4,18.6,"01:29:36",1
"17/06/06","01:40",0.0,13.8,85.2,1012.6,332.4,2.1,3.4,344.2,0.00,11.4,18.5,"01:36:40",1
"17/06/06","01:50",0.0,13.7,85.4,1012.6,328.7,2.2,3.5,337.4,0.00,11.3,18.3,"01:49:20",1
"17/06/06","02:00",0.0,13.8,85.4,1012.8,326.2,2.7,4.2,319.0,0.00,11.4,18.3,"01:57:28",1
"17/06/06","02:10",0.0,13.7,85.6,1012.8,330.8,2.2,3.3,326.7,0.00,11.4,18.2,"02:00:02",1
"17/06/06","02:20",0.0,13.6,85.8,1012.3,328.2,2.3,3.6,335.7,0.00,11.3,18.3,"02:14:40",1
"17/06/06","02:30",0.0,13.6,86.1,1012.3,327.6,2.6,4.1,334.8,0.00,11.4,18.2,"02:23:44",1
"17/06/06","02:40",0.0,13.6,86.2,1012.1,327.2,2.7,3.9,341.1,0.00,11.4,18.0,"02:33:12",1
"17/06/06","02:50",0.0,13.8,85.8,1012.6,314.9,2.6,3.5,308.4,0.00,11.5,18.1,"02:43:28",1
"17/06/06","03:00",0.0,13.8,85.9,1012.6,312.2,2.6,3.7,329.0,0.00,11.5,18.0,"02:56:32",1
"17/06/06","03:10",0.0,13.8,85.6,1012.3,329.3,2.5,4.1,332.9,0.00,11.5,17.8,"03:02:00",1
"17/06/06","03:20",0.0,13.6,86.0,1012.3,332.9,2.0,3.5,337.9,0.00,11.3,17.9,"03:12:24",1
"17/06/06","03:30",0.0,13.4,86.5,1012.1,333.8,2.1,4.3,321.7,0.00,11.2,17.9,"03:20:48",1
"17/06/06","03:40",0.0,13.3,86.7,1012.3,321.1,1.8,3.2,338.6,0.00,11.2,17.8,"03:31:12",1
"17/06/06","03:50",0.0,13.3,87.2,1012.8,314.5,2.1,4.0,338.6,0.00,11.3,17.6,"03:49:44",1
"17/06/06","04:00",0.0,13.2,86.8,1012.3,336.1,2.2,4.1,332.1,0.00,11.1,17.8,"03:51:04",1
"17/06/06","04:10",0.0,13.1,86.8,1012.8,331.9,1.7,3.7,347.7,0.00,11.0,17.7,"04:00:40",1
"17/06/06","04:20",0.0,12.9,87.0,1012.8,327.9,1.8,2.9,335.3,0.00,10.8,17.7,"04:10:16",1
"17/06/06","04:30",0.0,12.9,87.4,1012.8,317.4,1.8,2.8,310.9,0.00,10.9,17.5,"04:27:44",1
"17/06/06","04:40",0.0,12.9,87.3,1013.0,325.4,2.2,3.4,324.9,0.00,10.9,17.7,"04:35:38",1
"17/06/06","04:50",0.0,12.8,87.3,1013.3,325.6,2.1,3.2,333.4,0.00,10.8,17.5,"04:47:36",1
"17/06/06","05:00",0.0,12.8,87.5,1013.3,323.7,2.1,3.7,334.9,0.00,10.8,17.3,"04:51:04",1
"17/06/06","05:10",0.0,12.6,87.8,1013.3,330.0,1.7,3.1,337.6,0.00,10.7,17.5,"05:01:44",1
"17/06/06","05:20",0.0,12.6,88.3,1013.0,329.8,2.1,3.5,331.3,0.00,10.8,17.4,"05:19:04",1
"17/06/06","05:30",0.0,12.7,88.2,1013.3,318.0,2.3,3.3,313.6,0.00,10.8,17.4,"05:20:24",1
"17/06/06","05:40",0.0,12.8,87.9,1013.3,329.9,2.2,3.7,342.4,0.00,10.9,17.4,"05:36:16",1
"17/06/06","05:50",0.0,13.0,87.6,1013.5,331.9,2.1,3.3,334.9,0.00,11.0,17.2,"05:45:52",1
"17/06/06","06:00",0.0,13.3,86.4,1013.5,329.9,2.3,4.1,331.5,0.01,11.1,17.4,"05:56:40",1
"17/06/06","06:10",0.0,13.9,85.0,1013.5,332.2,2.0,3.4,328.7,0.02,11.5,17.3,"06:02:32",1
"17/06/06","06:20",0.0,14.4,83.1,1013.5,343.3,1.2,3.1,343.0,0.03,11.6,17.5,"06:10:40",1
"17/06/06","06:30",0.0,14.9,82.1,1013.8,349.9,1.1,2.0,353.1,0.04,11.9,17.4,"06:23:36",1
"17/06/06","06:40",0.0,15.5,80.5,1013.8,347.2,1.0,2.0,334.0,0.07,12.2,17.2,"06:31:04",1
"17/06/06","06:50",0.0,16.2,77.5,1013.5,332.9,1.3,2.1,343.0,0.09,12.3,17.7,"06:49:04",1
"17/06/06","07:00",0.0,17.0,73.2,1013.8,349.5,1.0,1.8,306.8,0.11,12.2,17.5,"06:50:32",1
"17/06/06","07:10",0.0,17.8,70.2,1013.8,350.4,0.8,2.1,333.2,0.14,12.3,17.7,"07:00:40",1
"17/06/06","07:20",0.0,18.4,68.3,1014.0,2.8,0.7,1.3,347.9,0.17,12.5,18.0,"07:14:24",1
"17/06/06","07:30",0.0,18.7,67.9,1014.0,340.2,0.8,1.6,322.2,0.19,12.7,18.0,"07:24:00",1
"17/06/06","07:40",0.0,19.2,68.9,1013.8,353.2,0.7,1.7,0.8,0.22,13.4,18.3,"07:35:28",1
"17/06/06","07:50",0.0,19.4,65.5,1013.8,237.4,0.5,1.1,121.8,0.24,12.8,18.6,"07:40:48",1
"17/06/06","08:00",0.0,19.8,64.9,1013.3,239.6,0.3,1.1,147.6,0.27,13.1,18.7,"07:58:40",1
"17/06/06","08:10",0.0,20.4,62.4,1013.5,156.8,0.3,1.1,217.4,0.29,13.0,18.9,"08:03:12",1
"17/06/06","08:20",0.0,20.9,61.3,1013.3,312.9,0.5,1.2,11.7,0.31,13.2,19.2,"08:18:00",1
"17/06/06","08:30",0.0,21.3,60.5,1013.3,46.7,0.6,1.2,356.6,0.34,13.4,19.5,"08:21:04",1
"17/06/06","08:40",0.0,21.2,56.7,1013.0,189.4,1.0,2.1,209.8,0.37,12.3,19.6,"08:39:20",1
"17/06/06","08:50",0.0,21.1,57.6,1013.3,231.0,1.2,2.6,219.9,0.39,12.5,19.7,"08:44:56",1
"17/06/06","09:00",0.0,22.0,56.9,1012.6,221.8,1.2,3.1,189.6,0.41,13.1,19.9,"08:57:20",1
"17/06/06","09:10",0.0,22.4,57.6,1012.8,103.3,1.1,3.4,121.4,0.43,13.7,20.3,"09:07:08",1
"17/06/06","09:20",0.0,22.6,56.0,1012.6,195.1,1.2,3.5,147.9,0.45,13.4,20.7,"09:10:08",1
"17/06/06","09:30",0.0,22.8,55.0,1012.6,180.3,1.3,3.7,192.5,0.47,13.3,20.8,"09:21:20",1
"17/06/06","09:40",0.0,22.8,54.6,1012.3,133.4,1.6,3.4,185.7,0.48,13.2,21.1,"09:32:00",1
"17/06/06","09:50",0.0,23.9,55.5,1012.1,197.1,1.0,2.5,197.3,0.50,14.5,21.5,"09:46:24",1
"17/06/06","10:00",0.0,24.2,52.9,1011.9,142.8,1.2,2.2,144.7,0.52,14.0,21.9,"09:52:00",1
"17/06/06","10:10",0.0,24.2,52.5,1011.4,147.3,1.2,2.6,156.4,0.54,13.9,22.2,"10:05:36",1
"17/06/06","10:20",0.0,24.3,52.1,1011.4,151.1,1.2,3.1,176.8,0.55,13.9,22.5,"10:16:16",1
"17/06/06","10:30",0.0,24.0,52.7,1011.2,202.4,2.0,4.1,217.1,0.55,13.8,22.7,"10:24:00",1
"17/06/06","10:40",0.0,24.5,49.1,1011.2,175.7,1.3,2.8,181.0,0.58,13.2,22.9,"10:39:52",1
"17/06/06","10:50",0.0,25.2,48.0,1011.9,181.7,1.2,3.1,126.4,0.58,13.5,23.3,"10:41:28",1
"17/06/06","11:00",0.0,25.6,43.9,1011.6,151.3,1.3,4.8,121.1,0.61,12.5,23.5,"10:50:40",1
"17/06/06","11:10",0.0,25.3,44.7,1011.6,216.4,1.3,2.9,229.0,0.62,12.5,23.8,"11:04:24",1
"17/06/06","11:20",0.0,25.9,39.5,1012.1,153.5,1.2,2.5,125.4,0.64,11.1,24.1,"11:17:20",1
"17/06/06","11:30",0.0,25.7,43.1,1012.1,154.5,1.3,3.3,127.3,0.53,12.3,24.4,"11:28:56",1
"17/06/06","11:40",0.0,25.3,39.3,1011.6,174.6,1.5,4.1,194.2,0.43,10.5,24.6,"11:37:36",1
"17/06/06","11:50",0.0,25.4,37.4,1011.6,181.1,1.8,3.7,222.6,0.41,9.9,24.7,"11:43:52",1
"17/06/06","12:00",0.0,26.2,35.8,1011.2,187.8,2.1,4.3,173.5,0.54,9.9,24.7,"11:50:48",1
"17/06/06","12:10",0.0,26.5,36.5,1011.4,171.7,1.1,3.4,231.3,0.49,10.5,24.8,"12:04:00",1
"17/06/06","12:20",0.0,26.7,35.2,1011.4,203.3,1.8,5.0,211.6,0.61,10.1,25.0,"12:14:00",1
"17/06/06","12:30",0.0,26.1,36.3,1010.9,225.1,1.2,4.1,178.7,0.44,10.0,25.1,"12:20:02",1
"17/06/06","12:40",0.0,25.9,37.8,1010.7,201.1,2.1,4.2,232.9,0.38,10.5,25.2,"12:34:24",1
"17/06/06","12:50",0.0,26.8,32.6,1010.7,159.9,1.7,3.2,167.8,0.57,9.1,25.0,"12:46:40",1
"17/06/06","13:00",0.0,27.6,30.6,1010.7,158.8,0.7,2.7,189.9,0.53,8.8,25.3,"12:59:36",1
"17/06/06","13:10",0.0,27.6,33.4,1011.2,156.4,1.1,2.8,208.5,0.53,10.1,25.3,"13:00:02",1
"17/06/06","13:20",0.0,27.7,32.4,1010.9,191.7,2.2,3.7,205.5,0.57,9.7,25.2,"13:16:00",1
"17/06/06","13:30",0.0,27.7,32.3,1011.2,196.4,2.2,3.9,232.7,0.56,9.7,25.0,"13:21:36",1
"17/06/06","13:40",0.0,27.6,35.7,1010.9,212.5,1.3,3.1,171.8,0.47,11.1,24.8,"13:30:02",1
"17/06/06","13:50",0.0,26.7,32.4,1010.7,193.1,2.7,4.3,213.4,0.39,8.9,25.1,"13:45:36",1
"17/06/06","14:00",0.0,27.0,32.1,1010.7,210.8,1.7,4.7,227.6,0.37,9.0,25.0,"13:50:02",1
"17/06/06","14:10",0.0,26.9,35.4,1010.4,222.4,1.5,3.9,227.9,0.31,10.4,24.9,"14:01:12",1
"17/06/06","14:20",0.0,26.4,33.2,1010.2,244.0,1.7,3.9,228.4,0.28,9.0,24.8,"14:13:12",1
"17/06/06","14:30",0.0,26.3,32.8,1010.2,262.2,1.5,3.2,252.4,0.25,8.7,24.7,"14:29:20",1
"17/06/06","14:40",0.0,26.9,32.4,1010.4,279.4,1.0,3.1,229.8,0.30,9.1,24.9,"14:39:44",1
"17/06/06","14:50",0.0,26.5,35.0,1009.7,190.8,1.3,3.1,219.4,0.28,9.8,24.9,"14:40:40",1
"17/06/06","15:00",0.0,27.2,32.9,1009.7,223.9,1.3,2.6,177.3,0.33,9.5,24.9,"14:52:16",1
"17/06/06","15:10",0.0,26.5,30.1,1010.0,249.4,1.2,3.4,221.9,0.25,7.6,25.0,"15:07:28",1
"17/06/06","15:20",0.0,26.4,29.7,1009.3,245.9,1.2,2.6,217.8,0.20,7.3,24.9,"15:11:28",1
"17/06/06","15:30",0.0,26.5,30.7,1009.3,258.1,1.0,2.5,214.4,0.22,7.9,24.9,"15:25:44",1
"17/06/06","15:40",0.0,26.2,31.2,1009.0,212.7,1.8,4.0,200.1,0.22,7.9,24.7,"15:37:04",1
"17/06/06","15:50",0.0,26.1,31.8,1009.0,243.5,1.5,3.5,226.7,0.20,8.1,24.8,"15:46:48",1
"17/06/06","16:00",0.0,26.2,33.1,1008.6,242.5,1.5,3.6,238.4,0.19,8.8,24.5,"15:59:04",1
"17/06/06","16:10",0.0,25.9,34.0,1009.0,256.2,1.3,3.3,224.7,0.16,8.9,24.8,"16:08:00",1
"17/06/06","16:20",0.0,26.1,38.2,1009.3,205.4,1.3,2.5,220.4,0.17,10.8,24.5,"16:18:16",1
"17/06/06","16:30",0.0,25.6,36.8,1009.3,266.1,1.2,2.1,239.7,0.14,9.8,24.5,"16:23:44",1
"17/06/06","16:40",0.0,25.3,37.0,1009.3,270.0,1.2,3.1,318.2,0.12,9.6,24.4,"16:39:04",1
"17/06/06","16:50",0.0,25.2,38.2,1009.0,237.2,1.5,3.5,233.6,0.10,10.0,24.4,"16:42:40",1
"17/06/06","17:00",0.0,25.4,39.6,1008.8,238.7,1.2,2.6,235.5,0.09,10.7,24.4,"16:54:08",1
"17/06/06","17:10",0.0,25.2,40.0,1009.0,229.6,1.7,3.6,229.0,0.08,10.7,24.2,"17:07:04",1
"17/06/06","17:20",0.0,25.2,40.2,1008.8,254.7,1.1,2.2,304.0,0.08,10.8,24.1,"17:12:40",1
"17/06/06","17:30",0.0,25.2,40.3,1009.0,254.2,1.0,2.0,237.5,0.07,10.8,24.1,"17:23:52",1
"17/06/06","17:40",0.0,25.3,39.8,1009.3,249.6,1.3,2.6,227.1,0.08,10.7,24.0,"17:36:32",1
"17/06/06","17:50",0.0,25.1,38.2,1009.5,246.5,1.7,3.6,204.6,0.06,9.9,23.9,"17:40:32",1
"17/06/06","18:00",0.0,25.0,38.5,1009.5,261.5,1.2,2.2,238.7,0.05,9.9,23.7,"17:57:44",1
"17/06/06","18:10",0.0,24.6,40.9,1009.5,261.8,1.2,2.2,232.2,0.02,10.5,23.8,"18:00:16",1
"17/06/06","18:20",0.0,24.3,41.0,1009.5,280.7,1.1,2.4,238.9,0.02,10.3,23.6,"18:18:08",1
"17/06/06","18:30",0.0,24.0,43.9,1009.7,309.4,1.0,2.1,343.5,0.02,11.0,23.3,"18:26:56",1
"17/06/06","18:40",0.0,23.8,45.4,1009.7,336.5,1.7,2.7,341.8,0.01,11.3,23.3,"18:35:36",1
"17/06/06","18:50",0.0,23.4,45.9,1010.2,340.9,1.2,2.2,339.5,0.00,11.1,23.4,"18:40:02",1
"17/06/06","19:00",0.0,23.1,45.0,1010.4,353.1,1.2,1.8,26.9,0.00,10.6,23.2,"18:50:24",1
"17/06/06","19:10",0.0,22.9,45.1,1010.0,2.1,1.3,2.5,325.8,0.00,10.4,23.0,"19:07:20",1
"17/06/06","19:20",0.0,22.8,44.5,1010.4,344.5,1.2,2.6,342.9,0.00,10.1,22.9,"19:17:36",1
"17/06/06","19:30",0.0,22.5,44.7,1010.7,319.8,1.2,2.5,339.7,0.00,9.9,22.7,"19:25:12",1
"17/06/06","19:40",0.0,22.3,45.9,1010.9,311.8,1.1,2.4,338.5,0.00,10.1,22.6,"19:39:36",1
"17/06/06","19:50",0.0,22.1,45.2,1010.7,313.3,0.7,1.6,309.9,0.00,9.7,22.4,"19:49:12",1
"17/06/06","20:00",0.0,22.0,46.2,1010.9,321.2,1.5,2.1,327.4,0.00,10.0,22.4,"19:52:16",1
"17/06/06","20:10",0.0,21.8,48.5,1010.7,299.0,1.1,2.1,321.2,0.00,10.5,22.2,"20:09:44",1
"17/06/06","20:20",0.0,21.4,51.1,1011.2,317.2,1.3,2.4,351.3,0.00,10.9,22.2,"20:18:32",1
"17/06/06","20:30",0.0,20.9,52.5,1011.4,281.3,0.7,1.3,327.2,0.00,10.9,22.2,"20:20:32",1
"17/06/06","20:40",0.0,20.5,54.9,1011.4,316.8,1.0,1.4,322.8,0.00,11.2,22.0,"20:31:20",1
"17/06/06","20:50",0.0,20.4,56.2,1011.9,305.2,1.1,1.8,332.4,0.00,11.4,22.0,"20:48:08",1
"17/06/06","21:00",0.0,20.2,57.4,1012.1,316.7,0.8,2.0,343.2,0.00,11.6,21.7,"20:51:52",1
"17/06/06","21:10",0.0,20.0,57.8,1012.6,297.2,1.1,2.0,308.7,0.00,11.5,21.9,"21:03:20",1
"17/06/06","21:20",0.0,20.0,58.0,1012.3,313.6,1.5,2.9,333.5,0.00,11.5,21.4,"21:16:16",1
"17/06/06","21:30",0.0,20.2,58.4,1012.3,327.0,1.7,2.5,313.9,0.00,11.8,21.5,"21:20:08",1
"17/06/06","21:40",0.0,20.0,59.3,1012.1,329.6,2.3,4.0,341.5,0.00,11.9,21.6,"21:30:08",1
"17/06/06","21:50",0.0,19.8,59.5,1012.3,327.8,2.1,3.3,329.6,0.00,11.7,21.6,"21:48:40",1
"17/06/06","22:00",0.0,19.9,59.5,1012.8,320.7,2.0,3.2,337.4,0.00,11.8,21.4,"21:55:28",1
"17/06/06","22:10",0.0,19.8,59.2,1012.6,308.2,1.2,2.0,320.9,0.00,11.7,21.5,"22:03:36",1
"17/06/06","22:20",0.0,19.7,60.1,1012.3,315.7,1.3,2.6,323.7,0.00,11.8,21.2,"22:19:04",1
"17/06/06","22:30",0.0,19.5,60.5,1012.8,293.1,1.2,2.1,315.1,0.00,11.7,21.2,"22:21:28",1
"17/06/06","22:40",0.0,19.4,61.0,1012.6,306.6,1.1,1.6,269.4,0.00,11.7,21.1,"22:31:12",1
"17/06/06","22:50",0.0,19.3,61.8,1012.6,297.5,1.0,1.7,319.5,0.00,11.8,21.1,"22:48:24",1
"17/06/06","23:00",0.0,19.2,62.1,1012.3,293.3,1.0,1.4,321.1,0.00,11.8,20.9,"22:52:16",1
"17/06/06","23:10",0.0,19.1,62.8,1012.3,296.9,1.1,1.7,324.8,0.00,11.9,21.1,"23:06:16",1
"17/06/06","23:20",0.0,18.9,63.3,1012.3,302.2,1.1,1.8,313.5,0.00,11.8,20.9,"23:18:40",1
"17/06/06","23:30",0.0,18.8,64.4,1012.3,304.3,1.1,2.0,315.9,0.00,12.0,21.0,"23:22:40",1
"17/06/06","23:40",0.0,18.6,65.5,1012.1,302.5,1.1,2.0,334.3,0.00,12.1,20.8,"23:37:44",1
"17/06/06","23:50",0.0,18.5,65.7,1012.1,286.5,0.8,1.3,315.9,0.00,12.0,20.7,"23:48:32",1
"17/06/06","24:00",0.0,18.5,66.4,1011.6,320.3,1.5,1.9,310.3,0.00,12.2,20.7,"23:53:52",1
